Time,TemperatureF,DewpointF,PressureIn,WindDirection,WindDirectionDegrees,WindSpeedMPH,WindSpeedGustMPH,Humidity,HourlyPrecipIn,Conditions,Clouds,dailyrainin,SoftwareType,DateUTC
2013-05-24 00:05:00,49.8,48.0,30.26,NE,47,0.0,1.0,92,0.00,,,0.00,weatherlink.com 1.10,2013-05-24 05:05:00,
2013-05-24 00:20:00,49.3,47.0,30.27,NE,47,0.0,0.0,92,0.00,,,0.00,weatherlink.com 1.10,2013-05-24 05:20:00,
2013-05-24 00:35:00,48.9,47.0,30.28,NE,47,0.0,1.0,93,0.00,,,0.00,weatherlink.com 1.10,2013-05-24 05:35:00,
2013-05-24 00:50:00,49.0,47.0,30.29,NE,47,0.0,1.0,93,0.00,,,0.00,weatherlink.com 1.10,2013-05-24 05:50:00,
2013-05-24 01:05:00,48.7,47.0,30.29,NE,47,0.0,0.0,93,0.00,,,0.00,weatherlink.com 1.10,2013-05-24 06:05:00,
2013-05-24 01:20:00,48.0,46.0,30.29,NE,47,0.0,0.0,94,0.00,,,0.00,weatherlink.com 1.10,2013-05-24 06:20:00,
2013-05-24 01:35:00,47.5,46.0,30.29,NE,47,0.0,0.0,94,0.00,,,0.00,weatherlink.com 1.10,2013-05-24 06:35:00,
2013-05-24 01:50:00,47.2,46.0,30.30,NE,47,0.0,0.0,95,0.00,,,0.00,weatherlink.com 1.10,2013-05-24 06:50:00,
2013-05-24 02:05:00,47.0,46.0,30.30,NE,47,0.0,0.0,95,0.00,,,0.00,weatherlink.com 1.10,2013-05-24 07:05:00,
2013-05-24 02:20:00,46.9,46.0,30.30,NE,47,0.0,0.0,96,0.00,,,0.00,weatherlink.com 1.10,2013-05-24 07:20:00,
2013-05-24 02:35:00,46.3,45.0,30.30,NE,47,0.0,0.0,95,0.00,,,0.00,weatherlink.com 1.10,2013-05-24 07:35:00,
2013-05-24 02:50:00,46.3,45.0,30.30,NE,47,0.0,1.0,96,0.00,,,0.00,weatherlink.com 1.10,2013-05-24 07:50:00,
2013-05-24 03:05:00,46.0,45.0,30.30,NE,47,0.0,1.0,96,0.00,,,0.00,weatherlink.com 1.10,2013-05-24 08:05:00,
2013-05-24 03:20:00,45.8,45.0,30.30,NE,47,0.0,0.0,96,0.00,,,0.00,weatherlink.com 1.10,2013-05-24 08:20:00,
2013-05-24 03:35:00,45.2,44.0,30.31,NE,47,0.0,0.0,96,0.00,,,0.00,weatherlink.com 1.10,2013-05-24 08:35:00,
2013-05-24 03:51:00,44.8,44.0,30.31,NE,47,0.0,0.0,96,0.00,,,0.00,weatherlink.com 1.10,2013-05-24 08:51:00,
2013-05-24 04:06:00,44.9,44.0,30.31,NE,34,0.0,1.0,97,0.00,,,0.00,weatherlink.com 1.10,2013-05-24 09:06:00,
2013-05-24 04:21:00,44.8,44.0,30.32,NNE,23,0.0,2.0,97,0.00,,,0.00,weatherlink.com 1.10,2013-05-24 09:21:00,
2013-05-24 04:36:00,45.1,44.0,30.33,ENE,61,0.0,3.0,97,0.01,,,0.01,weatherlink.com 1.10,2013-05-24 09:36:00,
2013-05-24 04:51:00,44.6,44.0,30.33,ENE,57,0.0,2.0,97,0.01,,,0.01,weatherlink.com 1.10,2013-05-24 09:51:00,
2013-05-24 05:08:00,44.0,43.0,30.34,ENE,57,0.0,2.0,96,0.01,,,0.01,weatherlink.com 1.10,2013-05-24 10:08:00,
2013-05-24 05:21:00,43.6,43.0,30.35,NE,49,0.0,4.0,96,0.01,,,0.01,weatherlink.com 1.10,2013-05-24 10:21:00,
2013-05-24 05:36:00,43.2,42.0,30.36,NE,42,0.0,2.0,96,0.00,,,0.01,weatherlink.com 1.10,2013-05-24 10:36:00,
2013-05-24 05:51:00,43.1,42.0,30.37,ENE,74,2.0,6.0,95,0.00,,,0.01,weatherlink.com 1.10,2013-05-24 10:51:00,
2013-05-24 06:06:00,43.0,41.0,30.38,NE,38,0.0,5.0,93,0.00,,,0.01,weatherlink.com 1.10,2013-05-24 11:06:00,
2013-05-24 06:21:00,42.7,41.0,30.39,NE,35,0.0,3.0,92,0.00,,,0.01,weatherlink.com 1.10,2013-05-24 11:21:00,
2013-05-24 06:36:00,42.8,41.0,30.40,NE,40,1.0,3.0,92,0.00,,,0.01,weatherlink.com 1.10,2013-05-24 11:36:00,
2013-05-24 06:51:00,43.4,41.0,30.41,NE,36,0.0,4.0,90,0.00,,,0.01,weatherlink.com 1.10,2013-05-24 11:51:00,
2013-05-24 07:06:00,44.2,41.0,30.41,NNE,22,2.0,5.0,89,0.00,,,0.01,weatherlink.com 1.10,2013-05-24 12:06:00,
2013-05-24 07:21:00,45.2,42.0,30.41,NE,37,1.0,6.0,89,0.00,,,0.01,weatherlink.com 1.10,2013-05-24 12:21:00,
2013-05-24 07:36:00,46.3,43.0,30.42,NNE,26,2.0,6.0,89,0.00,,,0.01,weatherlink.com 1.10,2013-05-24 12:36:00,
2013-05-24 07:51:00,47.3,43.0,30.43,North,5,2.0,6.0,86,0.00,,,0.01,weatherlink.com 1.10,2013-05-24 12:51:00,
2013-05-24 08:06:00,48.2,43.0,30.43,ENE,62,7.0,9.0,82,0.00,,,0.01,weatherlink.com 1.10,2013-05-24 13:06:00,
2013-05-24 08:21:00,49.2,43.0,30.43,ENE,59,1.0,6.0,78,0.00,,,0.01,weatherlink.com 1.10,2013-05-24 13:21:00,
2013-05-24 08:36:00,49.8,43.0,30.44,East,87,1.0,7.0,77,0.00,,,0.01,weatherlink.com 1.10,2013-05-24 13:36:00,
2013-05-24 08:51:00,51.1,43.0,30.43,ENE,64,0.0,6.0,74,0.00,,,0.01,weatherlink.com 1.10,2013-05-24 13:51:00,
2013-05-24 09:06:00,51.5,43.0,30.43,NNW,332,1.0,8.0,72,0.00,,,0.01,weatherlink.com 1.10,2013-05-24 14:06:00,
2013-05-24 09:21:00,52.9,43.0,30.43,NE,44,0.0,7.0,68,0.00,,,0.01,weatherlink.com 1.10,2013-05-24 14:21:00,
2013-05-24 09:36:00,53.8,42.0,30.44,NE,56,0.0,8.0,65,0.00,,,0.01,weatherlink.com 1.10,2013-05-24 14:36:00,
2013-05-24 09:52:00,55.0,40.0,30.43,ESE,111,2.0,5.0,58,0.00,,,0.01,weatherlink.com 1.10,2013-05-24 14:52:00,
2013-05-24 10:07:00,55.1,40.0,30.43,ENE,72,2.0,9.0,58,0.00,,,0.01,weatherlink.com 1.10,2013-05-24 15:07:00,
2013-05-24 10:22:00,56.3,41.0,30.43,NE,55,2.0,6.0,56,0.00,,,0.01,weatherlink.com 1.10,2013-05-24 15:22:00,
2013-05-24 10:37:00,57.1,42.0,30.42,ENE,69,0.0,7.0,57,0.00,,,0.01,weatherlink.com 1.10,2013-05-24 15:37:00,
2013-05-24 10:52:00,57.1,39.0,30.43,North,355,4.0,8.0,51,0.00,,,0.01,weatherlink.com 1.10,2013-05-24 15:52:00,
2013-05-24 11:07:00,58.1,40.0,30.43,North,360,5.0,7.0,51,0.00,,,0.01,weatherlink.com 1.10,2013-05-24 16:07:00,
2013-05-24 11:22:00,59.8,40.0,30.42,ESE,121,3.0,10.0,48,0.00,,,0.01,weatherlink.com 1.10,2013-05-24 16:22:00,
2013-05-24 11:37:00,59.7,39.0,30.42,NE,39,3.0,8.0,47,0.00,,,0.01,weatherlink.com 1.10,2013-05-24 16:37:00,
2013-05-24 11:52:00,60.6,41.0,30.42,NE,40,3.0,7.0,48,0.00,,,0.01,weatherlink.com 1.10,2013-05-24 16:52:00,
2013-05-24 12:07:00,61.7,41.0,30.41,SSE,148,3.0,5.0,46,0.00,,,0.01,weatherlink.com 1.10,2013-05-24 17:07:00,
2013-05-24 12:24:00,62.5,40.0,30.41,SSW,202,3.0,6.0,44,0.00,,,0.01,weatherlink.com 1.10,2013-05-24 17:24:00,
2013-05-24 12:37:00,62.4,41.0,30.41,South,169,3.0,9.0,45,0.00,,,0.01,weatherlink.com 1.10,2013-05-24 17:37:00,
2013-05-24 12:52:00,62.7,40.0,30.40,NE,49,3.0,9.0,44,0.00,,,0.01,weatherlink.com 1.10,2013-05-24 17:52:00,
2013-05-24 13:07:00,62.9,40.0,30.40,NNW,343,3.0,7.0,43,0.00,,,0.01,weatherlink.com 1.10,2013-05-24 18:07:00,
2013-05-24 13:22:00,63.4,39.0,30.39,NNE,19,3.0,8.0,40,0.00,,,0.01,weatherlink.com 1.10,2013-05-24 18:22:00,
2013-05-24 13:37:00,64.4,38.0,30.39,SE,134,2.0,6.0,38,0.00,,,0.01,weatherlink.com 1.10,2013-05-24 18:37:00,
2013-05-24 13:52:00,63.9,39.0,30.38,ENE,67,1.0,11.0,40,0.00,,,0.01,weatherlink.com 1.10,2013-05-24 18:52:00,
2013-05-24 14:07:00,65.2,39.0,30.38,NE,40,1.0,5.0,38,0.00,,,0.01,weatherlink.com 1.10,2013-05-24 19:07:00,
2013-05-24 14:22:00,66.2,40.0,30.38,North,9,6.0,7.0,39,0.00,,,0.01,weatherlink.com 1.10,2013-05-24 19:22:00,
2013-05-24 14:37:00,66.0,41.0,30.37,SE,125,2.0,7.0,40,0.00,,,0.01,weatherlink.com 1.10,2013-05-24 19:37:00,
2013-05-24 14:52:00,66.8,40.0,30.37,SE,140,3.0,8.0,37,0.00,,,0.01,weatherlink.com 1.10,2013-05-24 19:52:00,
2013-05-24 15:07:00,67.5,39.0,30.36,SE,131,1.0,9.0,36,0.00,,,0.01,weatherlink.com 1.10,2013-05-24 20:07:00,
2013-05-24 15:22:00,67.0,40.0,30.35,NNW,331,3.0,7.0,38,0.00,,,0.01,weatherlink.com 1.10,2013-05-24 20:22:00,
2013-05-24 15:37:00,68.5,40.0,30.35,SSE,148,0.0,6.0,36,0.00,,,0.01,weatherlink.com 1.10,2013-05-24 20:37:00,
2013-05-24 15:52:00,67.3,40.0,30.34,South,170,2.0,8.0,37,0.00,,,0.01,weatherlink.com 1.10,2013-05-24 20:52:00,
2013-05-24 16:07:00,68.5,39.0,30.33,ENE,65,2.0,6.0,34,0.00,,,0.01,weatherlink.com 1.10,2013-05-24 21:07:00,
2013-05-24 16:22:00,68.7,38.0,30.32,NNE,32,4.0,5.0,32,0.00,,,0.01,weatherlink.com 1.10,2013-05-24 21:22:00,
2013-05-24 16:37:00,68.5,38.0,30.32,SE,146,1.0,7.0,33,0.00,,,0.01,weatherlink.com 1.10,2013-05-24 21:37:00,
2013-05-24 16:52:00,68.7,36.0,30.32,SW,215,0.0,6.0,30,0.00,,,0.01,weatherlink.com 1.10,2013-05-24 21:52:00,
2013-05-24 17:07:00,68.9,38.0,30.31,SSE,160,4.0,11.0,32,0.00,,,0.01,weatherlink.com 1.10,2013-05-24 22:07:00,
2013-05-24 17:22:00,68.5,39.0,30.31,ENE,71,7.0,8.0,34,0.00,,,0.01,weatherlink.com 1.10,2013-05-24 22:22:00,
2013-05-24 17:37:00,67.4,39.0,30.30,SE,135,4.0,8.0,35,0.00,,,0.01,weatherlink.com 1.10,2013-05-24 22:37:00,
2013-05-24 17:52:00,67.6,38.0,30.30,South,177,5.0,9.0,34,0.00,,,0.01,weatherlink.com 1.10,2013-05-24 22:52:00,
2013-05-24 18:07:00,67.5,38.0,30.29,SSE,148,5.0,8.0,34,0.00,,,0.01,weatherlink.com 1.10,2013-05-24 23:07:00,
2013-05-24 18:22:00,67.4,39.0,30.29,East,82,5.0,8.0,35,0.00,,,0.01,weatherlink.com 1.10,2013-05-24 23:22:00,
2013-05-24 18:38:00,66.9,39.0,30.28,SE,137,4.0,5.0,36,0.00,,,0.01,weatherlink.com 1.10,2013-05-24 23:38:00,
2013-05-24 18:52:00,66.6,39.0,30.28,SE,139,1.0,5.0,36,0.00,,,0.01,weatherlink.com 1.10,2013-05-24 23:52:00,
2013-05-24 19:07:00,66.1,38.0,30.28,SSE,167,3.0,5.0,36,0.00,,,0.01,weatherlink.com 1.10,2013-05-25 00:07:00,
2013-05-24 19:22:00,65.6,38.0,30.28,SSE,155,2.0,4.0,36,0.00,,,0.01,weatherlink.com 1.10,2013-05-25 00:22:00,
2013-05-24 19:37:00,65.1,40.0,30.29,SE,138,0.0,2.0,40,0.00,,,0.01,weatherlink.com 1.10,2013-05-25 00:37:00,
2013-05-24 19:52:00,64.1,40.0,30.28,SE,138,0.0,1.0,42,0.00,,,0.01,weatherlink.com 1.10,2013-05-25 00:52:00,
2013-05-24 20:07:00,62.0,42.0,30.29,SE,138,0.0,0.0,49,0.00,,,0.01,weatherlink.com 1.10,2013-05-25 01:07:00,
2013-05-24 20:22:00,59.4,43.0,30.29,SE,138,0.0,0.0,54,0.00,,,0.01,weatherlink.com 1.10,2013-05-25 01:22:00,
2013-05-24 20:37:00,57.4,43.0,30.29,SE,138,0.0,0.0,59,0.00,,,0.01,weatherlink.com 1.10,2013-05-25 01:37:00,
2013-05-24 20:52:00,56.0,42.0,30.30,SE,138,0.0,0.0,60,0.00,,,0.01,weatherlink.com 1.10,2013-05-25 01:52:00,
2013-05-24 21:07:00,55.1,41.0,30.30,SE,138,0.0,0.0,59,0.00,,,0.01,weatherlink.com 1.10,2013-05-25 02:07:00,
2013-05-24 21:22:00,54.6,40.0,30.30,SE,138,0.0,0.0,58,0.00,,,0.01,weatherlink.com 1.10,2013-05-25 02:22:00,
2013-05-24 21:37:00,54.0,42.0,30.30,SE,138,0.0,0.0,63,0.00,,,0.01,weatherlink.com 1.10,2013-05-25 02:37:00,
2013-05-24 21:52:00,53.9,41.0,30.31,SE,138,0.0,0.0,62,0.00,,,0.01,weatherlink.com 1.10,2013-05-25 02:52:00,
2013-05-24 22:07:00,53.9,40.0,30.31,SE,138,0.0,0.0,59,0.00,,,0.01,weatherlink.com 1.10,2013-05-25 03:07:00,
2013-05-24 22:22:00,54.2,40.0,30.32,SE,138,0.0,0.0,60,0.00,,,0.01,weatherlink.com 1.10,2013-05-25 03:22:00,
2013-05-24 22:37:00,53.4,43.0,30.33,SE,138,0.0,0.0,69,0.00,,,0.01,weatherlink.com 1.10,2013-05-25 03:37:00,
2013-05-24 22:53:00,52.7,42.0,30.33,SE,138,0.0,0.0,66,0.00,,,0.01,weatherlink.com 1.10,2013-05-25 03:53:00,
2013-05-24 23:08:00,52.2,42.0,30.33,SE,138,0.0,0.0,69,0.00,,,0.01,weatherlink.com 1.10,2013-05-25 04:08:00,
2013-05-24 23:23:00,52.4,45.0,30.32,SE,138,0.0,0.0,76,0.00,,,0.01,weatherlink.com 1.10,2013-05-25 04:23:00,
2013-05-24 23:38:00,52.1,44.0,30.31,SE,138,0.0,0.0,75,0.00,,,0.01,weatherlink.com 1.10,2013-05-25 04:38:00,
2013-05-24 23:53:00,52.2,46.0,30.31,SE,138,0.0,0.0,78,0.00,,,0.01,weatherlink.com 1.10,2013-05-25 04:53:00,